User: anonymous   Login
Location: Goheenville
(40.9070°N, 79.3720°W)
Time: 20:32:59
(UTC-05:00)
Language:

Cosmos 1727 Rocket - Orbit

View from above orbital plane
View from above orbital plane
View from above satellite
View from above satellite

Ground track
Ground track

The orbit data is extracted from the following two-line orbital elements,

1 16511U 86008B   14325.15598619  .00000061  00000-0  47690-4 0  6191
2 16511 082.9451 196.2769 0024706 028.6947 144.1625 13.75776240447156
Epoch (UTC): 21 November 2014 03:44:37
Eccentricity: 0.0024706
inclination: 82.9451°
perigee height: 961 km
apogee height: 997 km
right ascension of ascending node: 196.2769°
argument of perigee: 28.6947°
revolutions per day: 13.75776240
mean anomaly at epoch: 144.1625°
orbit number at epoch: 44715

The dashed part of the orbit path shows where the satellite is in the earth's shadow,  

DLR